Location: Asheville, NC
(35.6000°N, 82.5500°W)
Time: 17:11:44
(UTC-04:00)

Vanguard 1 - Pass Details

Date: 12 March 2018
Orbit: 650 x 3833 km, 34.3° (Epoch: 17 June)

Event Time Altitude Azimuth Distance (km) Brightness Sun altitude
Rises 17:08:31 0° 287° (WNW) 7,345 15.2 27.8°
Reaches altitude 10° 17:14:32 10° 281° (W) 5,880 15.0 26.7°
Maximum altitude 17:28:35 36° 223° (SW) 2,871 13.9 24.1°
Drops below altitude 10° 17:36:54 10° 159° (SSE) 3,479 13.0 22.6°
Sets 17:39:30 0° 150° (SSE) 4,134 13.2 22.1°
